{"data":{"norad_id":51655,"intl_designator":"2022-012AK","name":"ONEWEB-0475","alt_names":[],"object_type":"PAYLOAD","status":"ACTIVE","operator":null,"country":"UK","launch_date":"2022-02-10","launch_site_code":"FRGUI","launch_vehicle":null,"mission":null,"orbit_class":"UNKNOWN","rcs_meters":null,"size_class":null,"mass_kg":null,"dimensions":null,"purposes":["comms"],"wikipedia_slug":null,"has_3d_model":false,"image_url":null,"decayed_at":null,"tle_current":{"epoch":"2026-05-25T03:18:21.593088Z","epoch_age_seconds":70030,"freshness":"FRESH","line1":"1 51655U 22012AK  26145.13774992  .00000073  00000+0  15432-3 0  9996","line2":"2 51655  87.9153  10.4565 0002153  68.3097 291.8263 13.17648992210657","mean_motion":13.17648992,"eccentricity":0.0002153,"inclination_deg":87.9153,"raan_deg":10.4565,"arg_perigee_deg":68.3097,"mean_anomaly_deg":291.8263,"bstar":0.00015432,"rev_number":21065,"period_min":109.28555394819,"perigee_km":1192.0830711441,"apogee_km":1195.3435098792,"semimajor_km":7571.8502905116,"source":"CELESTRAK","updated_at":"2026-05-25T13:38:22.583560Z"}}}